This demonstration page uses our WeatherBlox Daily Observations layout. Learn more.

Left ArrowRight Arrow

Hourly Observations for July 29, 2015

Temp ( °F °C ) Dew Point ( °F °C ) Humidity (%) Winds ( mph kmh ) Pressure ( in mb ) Visibility ( mi km ) Precip ( " mm )
12:52 am 00:52 Clear 79 26.1 74 23.3 85 85 SSE 5 7 29.97 1015 10 16 0.00 0.00
1:52 am 01:52 Clear 79 26.1 73 22.8 82 82 S 6 9 29.96 1014 10 16 0.00 0.00
2:52 am 02:52 Clear 77 25 72 22.2 85 85 S 5 7 29.96 1014 10 16 0.00 0.00
3:52 am 03:52 Clear 76 24.4 72 22.2 88 88 SSW 5 7 29.97 1015 9 14 0.00 0.00
4:52 am 04:52 Clear 75 23.9 72 22.2 90 90 SW 5 7 29.99 1016 9 14 0.00 0.00
5:52 am 05:52 Clear 75 23.9 72 22.2 90 90 Calm 30.01 1016 9 14 0.00 0.00
6:52 am 06:52 Mostly Cloudy 77 25 73 22.8 88 88 NW 3 6 30.03 1017 9 14 0.00 0.00
7:52 am 07:52 Sunny 79 26.1 73 22.8 82 82 N 7 11 30.05 1018 10 16 0.00 0.00
8:52 am 08:52 Sunny 82 27.8 72 22.2 72 72 Calm 30.06 1018 10 16 0.00 0.00
9:52 am 09:52 Sunny 86 30 72 22.2 63 63 NNE 5 7 30.05 1018 10 16 0.00 0.00
10:53 am 10:53 Mostly Sunny 88 31.1 71 21.7 57 57 W 5 7 30.06 1018 N/A 0.00 0.00
11:52 am 11:52 Sunny 89 31.7 71 21.7 55 55 VRB 3 6 30.05 1018 10 16 0.00 0.00
12:52 pm 12:52 Mostly Sunny 92 33.3 69 20.6 47 47 E 3 6 30.03 1017 10 16 0.00 0.00
1:52 pm 13:52 Sunny 92 33.3 68 20 46 46 Calm 30.03 1017 10 16 0.00 0.00
2:52 pm 14:52 Mostly Sunny 94 34.4 70 21.1 46 46 N 9 15 30.03 1017 10 16 0.00 0.00
3:52 pm 15:52 Mostly Cloudy 89 31.7 75 23.9 63 63 NNE 18 30 30.03 1017 10 16 0.00 0.00
4:52 pm 16:52 Sunny 87 30.6 72 22.2 61 61 NNE 16 26 30.03 1017 10 16 0.00 0.00
5:52 pm 17:52 Sunny 87 30.6 70 21.1 57 57 NNE 15 24 30.03 1017 10 16 0.00 0.00
6:52 pm 18:52 Sunny 86 30 71 21.7 61 61 NNE 10 17 30.04 1017 10 16 0.00 0.00
7:52 pm 19:52 Sunny 82 27.8 70 21.1 67 67 NNE 8 13 30.05 1018 10 16 0.00 0.00
8:52 pm 20:52 Cloudy 81 27.2 69 20.6 67 67 NE 9 15 30.07 1018 10 16 0.00 0.00
9:52 pm 21:52 Mostly Cloudy 79 26.1 69 20.6 72 72 NNE 7 11 30.09 1019 10 16 0.00 0.00
10:52 pm 22:52 Mostly Clear 77 25 69 20.6 77 77 NNE 7 11 30.10 1019 10 16 0.00 0.00
11:52 pm 23:52 Clear 76 24.4 68 20 77 77 NNE 5 7 30.11 1020 10 16 0.00 0.00

Powered by AerisWeather